CZ-3C DEB, 40170

Orbit data source: Space-Track

CZ-3C DEB, 40170 is space debris in HEO originally from a launch on Sun, 31 Oct 2010 UTC launched from the Xichang Space Center, China (XSC). Debris objects in space refer to the collection of defunct objects orbiting the Earth. Examples of debris include non-operational satellites, rocket bodies, and fragments generated from explosions, collisions, or faulty payload assembly.

Loading next visibility...
Identifier
40170, 2010-057Y
Orbit
HEO
Country
Flag of CNCN / PRC
Related business
Manufacturer
CALT
Mission
Spacecraft
Bus & Motor
Unknown
Mass
Unknown
Launch date (UTC)
2010-10-31 (15 years ago)
Launch vehicle
Unknown
Launch site
Xichang Space Center, China (XSC)
Object type
Payload
Rocket body
Debris
Shape & HBR
Unknown shape, 0.3 m
Radar Cross Section
Medium (>0.1 m² and <1 m²)

Expand to show TLE details & history
Last TLE update: 7 hours ago

TLE from 7 hours ago
0 CZ-3C DEB
1 40170U 10057Y   25298.99966990 -.00000116  00000-0  12476-2 0  9999
2 40170  19.9571 187.7331 7106595 354.8958   4.6837  2.23785897100483
Epoch: 2025-10-25T23:59Z
TLE epoch observation values (Epoch: 2025-10-25T23:59:31.479Z)
Latitude
10.11032°
Longitude
-177.57424°
Altitude
1,362.907 km
Speed
9.319 km/s
True Right ascension
14h 27m 42s
True Declination
10° 03' 20"
Sunlit
Object was in daylight at epoch
Visualization orbit readout
Latitude
Unknown
Longitude
Unknown
Altitude
Unknown
Speed
Unknown
Apparent Right ascension
Unknown
Apparent Declination
Unknown
Sunlit
N/A
Visualization observer readout
Local Sidereal Time
02:45:27
Azimuth
Unknown
Elevation
Unknown
Doppler factor
Unknown
Orbital elements
Apogee altitude
35,864.553 km
Perigee altitude
766.781 km
Semi-major axis
24,693.804 km
Eccentricity
0.71066
Inclination
19.9571°
RAAN
187.7331°
Arg. of periapsis
354.8958°
True anomaly
37.08001°
Mean anomaly
4.6837°
Eccentric anomaly
15.70618°
Mean motion
0.55932 °/min
Orbital period
643.64 mins
BSTAR
0.0012476
Loading maneuver chart data...
Computing Atmospheric mass density...
Loading historical data...
Loading historical data...
Loading historical data...
Loading historical data...
Loading historical data...
Loading historical data...
Loading historical data...

Documentation

Showing up to 5 results
|